Location: *
(37.5724°S, 58.0067°E)
Time: 19:51:01
(UTC+00:00)

Cosmos 1470 - Pass Details

Date: 26 September 2020
Orbit: 521 x 542 km, 82.5° (Epoch: 27 October)

Event Time Altitude Azimuth Distance (km) Brightness Sun altitude
Rises 14:33:51 0° 172° (S) 2,744 6.4 -5.9°
Reaches altitude 10° 14:36:28 10° 155° (SSE) 1,840 5.3 -6.4°
Maximum altitude 14:39:34 21° 105° (ESE) 1,270 4.1 -7.0°
Drops below altitude 10° 14:42:38 10° 55° (NE) 1,813 4.9 -7.6°
Enters shadow 14:44:09 - 43° (NE) 2,318 5.5 -7.9°
